User: anonymous   Login
Location: Unspecified
(0.0000°N, 0.0000°E)
Time: 18:20:38
(UTC+00:00)
Language:

EO-79 - Orbit

View from above orbital plane
View from above orbital plane
View from above satellite
View from above satellite

Ground track
Ground track

The orbit data is extracted from the following two-line orbital elements,

1 40025U 14033R   18175.20479860  .00000279  00000-0  35881-4 0  9997
2 40025  97.9054  90.5893 0012957 155.7789 204.4039 14.88725670217838
Epoch (UTC): 24 June 2018 04:54:54
Eccentricity: 0.0012957
inclination: 97.9054°
perigee height: 593 km
apogee height: 611 km
right ascension of ascending node: 90.5893°
argument of perigee: 155.7789°
revolutions per day: 14.88725670
mean anomaly at epoch: 204.4039°
orbit number at epoch: 21783

The dashed part of the orbit path shows where the satellite is in the earth's shadow,  

DLR